Rochester, MN

12:04 AM CDT on June 29, 2017 (GMT -0500)
Rochester International

Weather History for KRST - May, 2013

Change the Weather History Date:

Tuesday, May 7, 2013

  Actual Average Record
Temperature  
Mean Temperature 63 °F 55 °F  
Max Temperature 76 °F 66 °F 86 °F (1934)
Min Temperature 50 °F 45 °F 24 °F (1929)
Degree Days  
Heating Degree Days 2 10  
Month to date heating degree days 137 77  
Since 1 July heating degree days 7590 7502  
Cooling Degree Days 0 0  
Month to date cooling degree days 0 0  
Year to date cooling degree days 0 4  
Growing Degree Days 12 (Base 50)    
Moisture  
Dew Point 46 °F    
Average Humidity 55    
Maximum Humidity 77    
Minimum Humidity 33    
Precipitation  
Precipitation 0.00 in 0.11 in 1.37 in (1998)
Month to date precipitation 2.96 0.82  
Year to date precipitation 14.60 7.63  
Snow  
Snow 0.00 in 0.00 in 0.00 in (2012)
Month to date snowfall 14.5 0.2  
Since 1 July snowfall 74.0 52.1  
Snow Depth 0.00 in    
Sea Level Pressure  
Sea Level Pressure 30.04 in    
Wind  
Wind Speed 4 mph (WSW)    
Max Wind Speed 14 mph    
Max Gust Speed 17 mph    
Visibility 10 miles    
Events      
T = Trace of Precipitation, MM = Missing Value Source: NWS Daily Summary

Daily Weather History Graph

Daily Weather History Graph

Search for Another Location

Airport or City:

Trip Planner

Search our weather history database for the weather conditions in past years. The results will help you decide how hot, cold, wet, or windy it might be!

Date:

Astronomy

May. 07, 2013 Rise Set
Actual Time 5:53 AM CDT 8:20 PM CDT
Civil Twilight 5:20 AM CDT 8:52 PM CDT
Nautical Twilight 4:40 AM CDT 9:33 PM CDT
Astronomical Twilight 3:55 AM CDT 10:19 PM CDT
Moon 4:32 AM CDT (5/7) 6:17 PM CDT (5/7)
Length of Visible Light 15h 31m
Length of Day
14h 27m
Waning Crescent, 5% of the Moon is Illuminated
May 7
Waning Crescent
May 9
New
May 17
First Quarter
May 24
Full
May 31
Last Quarter

Hourly Weather History & Observations

Time (CDT) Temp. Dew Point Humidity Pressure Visibility Wind Dir Wind Speed Gust Speed Precip Events Conditions
12:54 AM 63.0 °F 43.0 °F 48% 30.06 in 10.0 mi Calm Calm - N/A   Clear
1:54 AM 57.0 °F 44.1 °F 62% 30.06 in 10.0 mi Calm Calm - N/A   Clear
2:54 AM 53.1 °F 45.0 °F 74% 30.06 in 10.0 mi West 8.1 mph - N/A   Clear
3:54 AM 52.0 °F 45.0 °F 77% 30.06 in 10.0 mi WNW 9.2 mph - N/A   Clear
4:54 AM 53.1 °F 45.0 °F 74% 30.06 in 10.0 mi WNW 5.8 mph - N/A   Clear
5:54 AM 55.0 °F 46.0 °F 72% 30.07 in 10.0 mi NNW 3.5 mph - N/A   Clear
6:54 AM 53.1 °F 46.0 °F 77% 30.08 in 8.0 mi Calm Calm - N/A   Clear
7:54 AM 57.2 °F 50.0 °F 77% 30.09 in 7.0 mi Calm Calm - N/A   Clear
8:54 AM 62.1 °F 51.1 °F 67% 30.10 in 9.0 mi Calm Calm - N/A   Clear
9:54 AM 69.1 °F 50.0 °F 51% 30.09 in 10.0 mi Calm Calm - N/A   Clear
10:54 AM 71.1 °F 43.0 °F 36% 30.07 in 10.0 mi West 5.8 mph - N/A   Clear
11:54 AM 71.1 °F 44.1 °F 38% 30.06 in 10.0 mi SW 3.5 mph - N/A   Partly Cloudy
12:54 PM 73.4 °F 42.8 °F 33% 30.06 in 10.0 mi Calm Calm - N/A   Scattered Clouds
1:54 PM 72.0 °F 43.0 °F 35% 30.04 in 10.0 mi West 6.9 mph - N/A   Partly Cloudy
2:54 PM 75.0 °F 45.0 °F 34% 30.03 in 10.0 mi WSW 11.5 mph 16.1 mph N/A   Scattered Clouds
3:54 PM 75.0 °F 45.0 °F 34% 30.01 in 10.0 mi WSW 8.1 mph - 0.00 in   Partly Cloudy
4:54 PM 75.0 °F 44.1 °F 33% 30.00 in 10.0 mi WSW 8.1 mph - N/A   Clear
5:54 PM 75.0 °F 44.1 °F 33% 30.00 in 10.0 mi WSW 5.8 mph - N/A   Clear
6:54 PM 73.0 °F 45.0 °F 37% 29.99 in 10.0 mi WSW 4.6 mph - N/A   Clear
7:54 PM 69.1 °F 50.0 °F 51% 30.00 in 10.0 mi WSW 6.9 mph - N/A   Clear
8:54 PM 64.9 °F 50.0 °F 58% 30.00 in 10.0 mi SW 4.6 mph - N/A   Clear
9:54 PM 64.9 °F 48.0 °F 54% 30.00 in 10.0 mi Calm Calm - N/A   Clear
10:54 PM 61.0 °F 48.0 °F 62% 30.00 in 10.0 mi South 3.5 mph - N/A   Clear
11:54 PM 55.9 °F 48.9 °F 77% 30.00 in 10.0 mi South 4.6 mph - N/A   Clear